DW1980 Weather Reports


time (UTC)temp
C
wind
direction
speed
KPH
gust
KPH
rain 1hr
cm
rain 24hr
cm
rain mn
cm
humidity
%
barometer
mb
20260509221908 12 201 0.0 3.2 0.48 1.47 1.47 97 1011.1
20260509221618 12 201 0.0 3.2 0.48 1.45 1.45 97 1011.1
20260509221539 12 0 0.0 3.2 0.46 1.45 1.45 97 1010.5
20260509221337 12 286 1.6 1.6 0.48 1.45 1.45 97 1011.0
20260509220846 12 286 0.0 1.6 0.46 1.42 1.42 97 1011.3
20260509220357 12 286 0.0 3.2 0.41 1.37 1.37 97 1011.4
20260509220040 12 0 0.0 3.2 0.41 1.32 1.32 97 1010.9
20260509215844 12 286 0.0 3.2 0.38 1.32 1.32 97 1011.5
20260509215355 13 286 0.0 3.2 0.28 1.19 1.19 97 1011.6
20260509214906 13 286 0.0 3.2 0.25 1.17 1.17 97 1011.6
20260509214613 12 286 0.0 4.8 0.23 1.12 1.12 97 1011.4
20260509214536 12 0 0.0 4.8 0.23 1.12 1.12 97 1010.9
20260509214354 13 269 1.6 4.8 0.20 1.09 1.09 97 1011.4
20260509213844 13 280 1.6 4.8 0.20 1.07 1.07 97 1011.2
20260509213417 13 38 0.0 3.2 0.18 1.04 1.04 97 1011.3
20260509213121 12 38 1.6 3.2 0.15 1.02 1.02 97 1011.5
20260509213043 12 38 0.0 3.2 0.15 1.02 1.02 96 1011.2
20260509212843 13 288 1.6 3.2 0.13 0.99 0.99 97 1011.9
20260509212353 13 350 0.0 1.6 0.15 0.99 0.99 97 1011.6
20260509211843 13 350 0.0 4.8 0.15 0.99 0.99 97 1011.4
20260509211616 13 350 0.0 4.8 0.18 0.99 0.99 97 1011.4
20260509211540 13 0 0.0 4.8 0.15 0.97 0.97 96 1011.0
20260509211340 13 350 1.6 4.8 0.15 0.97 0.97 97 1011.7
20260509210848 13 19 0.0 3.2 0.15 0.97 0.97 97 1011.8
20260509210415 13 304 0.0 1.6 0.15 0.97 0.97 97 1011.7
20260509210121 13 228 0.0 0.0 0.13 0.94 0.94 97 1011.8
20260509210041 13 0 0.0 0.0 0.13 0.94 0.94 96 1011.2
20260509205846 13 228 0.0 0.0 0.13 0.94 0.94 97 1011.8
20260509205413 13 228 0.0 1.6 0.10 0.91 0.91 97 1011.7
20260509204902 13 228 0.0 1.6 0.10 0.91 0.91 97 1011.9
20260509204609 13 228 0.0 1.6 0.08 0.89 0.89 97 1012.0
20260509204538 13 0 0.0 1.6 0.08 0.89 0.89 96 1011.4
20260509204351 13 228 0.0 1.6 0.08 0.89 0.89 97 1012.0
20260509203845 13 228 0.0 1.6 0.05 0.86 0.86 97 1011.9
20260509203355 13 314 0.0 1.6 0.08 0.86 0.86 97 1011.8
20260509203038 13 0 0.0 1.6 0.08 0.86 0.86 96 1011.1
20260509203002 13 314 0.0 1.6 0.08 0.86 0.86 97 1011.7
20260509202901 13 314 0.0 1.6 0.08 0.86 0.86 97 1011.8
20260509202351 13 314 0.0 1.6 0.08 0.84 0.84 97 1012.0
20260509201621 13 314 0.0 3.2 0.08 0.81 0.81 96 1011.8
20260509201543 13 0 0.0 3.2 0.08 0.81 0.81 96 1011.3
20260509201347 13 314 0.0 3.2 0.08 0.81 0.81 96 1011.8
20260509200854 13 314 1.6 3.2 0.10 0.81 0.81 96 1011.9
20260509200343 13 336 0.0 1.6 0.10 0.81 0.81 96 1011.7
20260509200121 13 336 0.0 1.6 0.13 0.81 0.81 96 1011.5
20260509200041 13 0 0.0 3.2 0.13 0.81 0.81 96 1011.0
20260509195847 13 336 0.0 1.6 0.13 0.81 0.81 96 1011.6
20260509195337 13 290 0.0 3.2 0.15 0.81 0.81 96 1011.4
20260509194846 13 290 0.0 3.2 0.18 0.81 0.81 96 1011.2
20260509194610 13 290 1.6 3.2 0.18 0.81 0.81 96 1011.2
20260509194540 13 0 1.6 4.8 0.18 0.81 0.81 95 1010.6
20260509194354 13 292 1.6 4.8 0.20 0.81 0.81 96 1011.1
20260509193844 13 30 3.2 4.8 0.20 0.81 0.81 96 1011.0
20260509193356 13 281 0.0 1.6 0.28 0.79 0.79 96 1011.8
20260509193120 13 281 0.0 1.6 0.30 0.79 0.79 96 1011.7
20260509193040 13 0 0.0 1.6 0.33 0.79 0.79 95 1011.0
20260509192842 13 281 0.0 1.6 0.36 0.79 0.79 96 1011.6
20260509192352 13 281 0.0 3.2 0.41 0.76 0.76 95 1011.7
20260509191839 13 281 0.0 4.8 0.48 0.74 0.74 95 1011.8
20260509191609 13 281 0.0 4.8 0.48 0.71 0.71 95 1011.8
20260509191537 13 0 0.0 4.8 0.51 0.74 0.74 95 1011.1
20260509191412 14 281 1.6 4.8 0.51 0.74 0.74 95 1012.0
20260509190840 14 271 0.0 3.2 0.56 0.71 0.71 95 1012.0
20260509190411 14 271 0.0 3.2 0.61 0.69 0.69 95 1012.2
20260509190116 13 271 0.0 3.2 0.64 0.69 0.69 94 1012.2
20260509190043 13 271 0.0 3.2 0.64 0.69 0.69 94 1011.6
20260509185837 14 302 0.0 1.6 0.64 0.69 0.69 94 1012.1
20260509185347 14 302 0.0 1.6 0.61 0.66 0.66 94 1012.1
20260509184836 14 302 0.0 1.6 0.58 0.64 0.64 93 1012.2
20260509184604 13 302 0.0 4.8 0.58 0.64 0.64 93 1012.1
20260509184540 13 0 0.0 4.8 0.58 0.64 0.64 92 1011.5
20260509184346 14 302 0.0 4.8 0.56 0.61 0.61 93 1012.2
20260509183855 14 311 1.6 4.8 0.53 0.58 0.58 92 1012.3
20260509183345 14 236 0.0 4.8 0.46 0.51 0.51 91 1012.2
20260509183111 14 236 0.0 4.8 0.41 0.46 0.46 91 1012.3
20260509183054 14 236 1.6 4.8 0.41 0.46 0.46 90 1011.7
20260509182914 15 236 3.2 4.8 0.38 0.43 0.43 90 1012.2
20260509182343 15 226 1.6 4.8 0.30 0.36 0.36 88 1011.9
20260509181853 15 228 3.2 4.8 0.20 0.25 0.25 87 1011.9
20260509181622 15 167 0.0 6.4 0.18 0.23 0.23 87 1011.7
20260509181601 15 0 0.0 6.4 0.18 0.23 0.23 86 1011.0
20260509181344 16 167 1.6 6.4 0.18 0.23 0.23 86 1011.6
20260509180854 16 248 3.2 8.0 0.10 0.15 0.15 82 1011.5
20260509180404 17 167 3.2 8.0 0.00 0.05 0.05 76 1011.4
20260509180107 17 165 3.2 8.0 0.00 0.05 0.05 74 1011.3
20260509180036 17 206 1.6 12.9 0.00 0.05 0.05 74 1010.6
20260509175846 17 197 3.2 12.9 0.00 0.05 0.05 75 1011.1
20260509175354 17 155 3.2 12.9 0.00 0.05 0.05 73 1011.0
20260509174843 17 254 1.6 8.0 0.00 0.05 0.05 71 1010.8
20260509174614 17 233 1.6 8.0 0.00 0.05 0.05 71 1011.0
20260509174543 17 234 3.2 11.3 0.00 0.05 0.05 70 1010.4
20260509174416 18 227 4.8 9.7 0.00 0.05 0.05 71 1011.0
20260509173905 18 287 3.2 9.7 0.00 0.05 0.05 71 1010.9
20260509173354 18 232 3.2 6.4 0.00 0.05 0.05 72 1010.8
20260509173117 17 229 1.6 8.0 0.00 0.05 0.05 71 1010.8
20260509173039 17 233 1.6 8.0 0.00 0.05 0.05 70 1010.2
20260509172838 18 317 1.6 8.0 0.00 0.05 0.05 71 1010.9
20260509172349 18 232 4.8 8.0 0.00 0.05 0.05 70 1011.0
20260509171841 18 162 1.6 14.5 0.00 0.05 0.05 72 1010.9
20260509171610 17 215 1.6 14.5 0.00 0.05 0.05 72 1011.0
20260509171547 17 0 1.6 14.5 0.00 0.05 0.05 70 1010.3
20260509171351 18 267 3.2 14.5 0.00 0.05 0.05 70 1011.0
20260509170902 18 214 3.2 9.7 0.00 0.05 0.05 70 1011.2
20260509170352 18 159 4.8 9.7 0.00 0.05 0.05 70 1011.3
20260509170117 18 217 3.2 9.7 0.00 0.05 0.05 70 1011.3
20260509170038 18 208 3.2 9.7 0.00 0.05 0.05 70 1010.7
20260509165839 18 263 3.2 8.0 0.00 0.05 0.05 69 1011.3
20260509165410 18 229 4.8 11.3 0.00 0.05 0.05 68 1011.4
20260509164838 18 149 4.8 11.3 0.00 0.05 0.05 71 1011.4
20260509164607 18 221 1.6 6.4 0.00 0.05 0.05 71 1011.4
20260509164539 18 169 0.0 11.3 0.00 0.05 0.05 71 1010.8
20260509164350 18 186 1.6 11.3 0.00 0.05 0.05 69 1011.4
20260509163844 18 180 3.2 11.3 0.00 0.05 0.05 72 1011.6
20260509163355 17 240 3.2 9.7 0.00 0.05 0.05 74 1011.7
20260509163116 17 144 3.2 8.0 0.00 0.05 0.05 77 1011.7
20260509163040 17 53 1.6 8.0 0.00 0.05 0.05 76 1011.1
20260509162843 17 313 1.6 3.2 0.00 0.05 0.05 77 1011.9
20260509162412 17 238 1.6 6.4 0.00 0.05 0.05 77 1012.1
20260509161901 17 182 4.8 6.4 0.00 0.05 0.05 77 1012.1
20260509161619 16 234 0.0 3.2 0.00 0.05 0.05 82 1012.2
20260509161539 16 287 0.0 3.2 0.00 0.05 0.05 82 1011.7
20260509161346 16 205 1.6 3.2 0.00 0.05 0.05 82 1012.3
20260509160836 16 217 1.6 4.8 0.00 0.05 0.05 82 1012.5
20260509160347 16 215 1.6 4.8 0.00 0.05 0.05 83 1012.5
20260509160040 15 207 0.0 4.8 0.00 0.05 0.05 81 1012.0
20260509155913 15 155 1.6 3.2 0.00 0.05 0.05 83 1012.5
20260509155339 15 113 1.6 4.8 0.00 0.05 0.05 84 1012.5
20260509154909 15 238 1.6 4.8 0.00 0.05 0.05 84 1012.6
20260509154613 15 207 0.0 3.2 0.00 0.05 0.05 84 1012.6
20260509154538 15 0 0.0 4.8 0.00 0.05 0.05 84 1012.1
20260509154358 15 219 1.6 3.2 0.00 0.05 0.05 86 1012.7
20260509153845 15 219 1.6 3.2 0.00 0.05 0.05 85 1012.5
20260509153354 14 224 0.0 3.2 0.00 0.05 0.05 86 1012.4
20260509153118 14 212 1.6 3.2 0.00 0.05 0.05 86 1012.5
20260509153044 14 212 0.0 3.2 0.00 0.05 0.05 86 1012.0
20260509152841 14 182 1.6 3.2 0.00 0.05 0.05 87 1012.6
20260509152351 14 126 1.6 3.2 0.00 0.05 0.05 88 1012.7
20260509151900 14 156 1.6 3.2 0.00 0.05 0.05 87 1012.8
20260509151605 14 144 0.0 4.8 0.00 0.05 0.05 87 1012.8
20260509151544 14 0 0.0 4.8 0.00 0.05 0.05 86 1012.3
20260509151350 14 129 0.0 4.8 0.00 0.05 0.05 87 1012.8
20260509150839 14 96 1.6 6.4 0.00 0.05 0.05 87 1012.8
20260509150348 14 150 0.0 6.4 0.00 0.05 0.05 87 1012.6
20260509150112 13 88 1.6 6.4 0.00 0.05 0.05 87 1012.6
20260509150043 13 105 1.6 6.4 0.00 0.05 0.05 86 1012.2
20260509145854 14 222 1.6 4.8 0.00 0.05 0.05 87 1012.6
20260509145403 14 206 1.6 4.8 0.00 0.05 0.05 88 1012.8
20260509144851 14 234 0.0 4.8 0.00 0.05 0.05 88 1012.7
20260509144619 14 203 0.0 4.8 0.00 0.05 0.05 87 1012.7
20260509144542 14 213 0.0 6.4 0.00 0.05 0.05 86 1012.1
20260509144340 14 197 0.0 4.8 0.00 0.05 0.05 87 1012.6
20260509143848 14 157 1.6 8.0 0.00 0.05 0.05 88 1012.6
20260509143358 14 225 0.0 8.0 0.00 0.05 0.05 89 1012.7
20260509143121 14 193 3.2 8.0 0.00 0.05 0.05 89 1012.7
20260509143039 14 176 1.6 6.4 0.00 0.05 0.05 88 1012.1
20260509142840 14 219 1.6 6.4 0.00 0.05 0.05 90 1012.6
20260509142350 14 225 1.6 6.4 0.00 0.05 0.05 90 1012.6
20260509141840 14 94 1.6 4.8 0.00 0.05 0.05 91 1012.6
20260509141608 13 211 0.0 3.2 0.00 0.05 0.05 91 1012.7
20260509141539 13 155 0.0 3.2 0.00 0.05 0.05 91 1012.1
20260509141348 13 220 1.6 3.2 0.00 0.05 0.05 91 1012.7
20260509140837 13 153 1.6 3.2 0.00 0.05 0.05 92 1012.6
20260509140348 13 81 1.6 4.8 0.00 0.05 0.05 93 1012.7
20260509140121 13 149 0.0 3.2 0.00 0.05 0.05 93 1012.5
20260509140051 13 0 0.0 4.8 0.00 0.05 0.05 93 1011.9
20260509135855 13 146 0.0 3.2 0.00 0.05 0.05 94 1012.5
20260509135344 13 117 1.6 4.8 0.00 0.05 0.05 94 1012.6
20260509134854 12 176 1.6 4.8 0.00 0.05 0.05 95 1012.7
20260509134624 12 240 1.6 4.8 0.00 0.05 0.05 96 1012.6
20260509134540 12 227 0.0 4.8 0.00 0.05 0.05 95 1012.0
20260509134346 12 340 1.6 3.2 0.03 0.05 0.05 96 1012.5
20260509133836 12 113 1.6 3.2 0.03 0.05 0.05 97 1012.6
20260509133347 12 229 1.6 6.4 0.03 0.05 0.05 97 1012.8
20260509133112 12 169 0.0 6.4 0.03 0.05 0.05 97 1012.9
20260509133038 12 169 0.0 6.4 0.03 0.05 0.05 97 1012.2
20260509132854 12 145 1.6 6.4 0.03 0.05 0.05 97 1013.0
20260509132345 12 130 0.0 4.8 0.03 0.05 0.05 97 1013.2
20260509131838 11 178 1.6 4.8 0.03 0.05 0.05 97 1013.0
20260509131622 11 157 0.0 3.2 0.03 0.05 0.05 97 1012.9
20260509131539 11 0 0.0 3.2 0.03 0.05 0.05 97 1012.1
20260509131348 11 157 1.6 3.2 0.03 0.05 0.05 97 1012.7
20260509130857 11 187 1.6 3.2 0.03 0.05 0.05 97 1012.9
20260509130347 11 162 0.0 1.6 0.03 0.05 0.05 97 1013.1
20260509130107 11 162 0.0 6.4 0.03 0.05 0.05 97 1013.2
20260509130039 11 0 0.0 6.4 0.03 0.05 0.05 97 1012.6
20260509125854 11 162 0.0 6.4 0.03 0.05 0.05 97 1013.2
20260509125343 11 234 4.8 6.4 0.03 0.05 0.05 97 1013.5
20260509124853 11 193 1.6 3.2 0.03 0.05 0.05 97 1013.1
20260509124536 10 30 0.0 3.2 0.03 0.05 0.05 97 1012.3
20260509124502 10 30 0.0 3.2 0.03 0.05 0.05 97 1013.1
20260509124401 11 30 0.0 3.2 0.00 0.03 0.03 97 1013.1
20260509123851 11 59 0.0 3.2 0.00 0.03 0.03 97 1013.1
20260509123340 11 59 1.6 4.8 0.00 0.03 0.03 97 1013.0
20260509123121 10 179 0.0 4.8 0.00 0.03 0.03 97 1013.4
20260509123037 10 179 0.0 6.4 0.00 0.03 0.03 97 1012.8
20260509122846 11 167 1.6 4.8 0.00 0.03 0.03 97 1013.3
20260509122336 11 180 1.6 4.8 0.00 0.03 0.03 97 1013.3
20260509121847 11 162 0.0 1.6 0.00 0.03 0.03 97 1013.1
20260509121615 10 162 0.0 1.6 0.00 0.03 0.03 97 1013.1
20260509121539 10 0 0.0 1.6 0.00 0.03 0.03 97 1012.5
20260509121338 10 162 0.0 1.6 0.00 0.03 0.03 97 1013.3
20260509120849 10 161 0.0 1.6 0.00 0.03 0.03 97 1013.4
20260509120340 10 154 0.0 4.8 0.00 0.03 0.03 97 1013.4
20260509120105 10 154 0.0 4.8 0.00 0.03 0.03 97 1013.4
20260509120044 10 0 1.6 6.4 0.00 0.03 0.03 97 1012.9
20260509115846 10 154 1.6 6.4 0.00 0.03 0.03 97 1013.4
20260509115337 10 207 0.0 4.8 0.00 0.03 0.03 97 1013.5
20260509114845 10 200 3.2 4.8 0.00 0.03 0.03 97 1013.7
20260509114614 10 280 0.0 3.2 0.00 0.03 0.03 97 1013.7
20260509114538 10 0 0.0 3.2 0.00 0.03 0.03 97 1013.0
20260509114417 10 343 0.0 3.2 0.00 0.03 0.03 97 1013.7
20260509113846 10 240 0.0 3.2 0.00 0.03 0.03 97 1013.5
20260509113356 10 240 0.0 3.2 0.00 0.03 0.03 97 1013.7
20260509113121 10 240 0.0 3.2 0.00 0.03 0.03 97 1013.7
20260509113044 10 0 0.0 3.2 0.00 0.03 0.03 97 1013.2
20260509112843 10 304 1.6 3.2 0.00 0.03 0.03 97 1013.6
20260509112353 10 355 0.0 4.8 0.00 0.03 0.03 97 1013.4
20260509111844 10 355 1.6 4.8 0.00 0.03 0.03 97 1013.5
20260509111612 10 247 1.6 4.8 0.00 0.03 0.03 97 1013.8
20260509111548 10 247 1.6 4.8 0.00 0.03 0.03 96 1013.3
20260509111415 10 273 1.6 3.2 0.00 0.03 0.03 97 1013.7
20260509110843 10 299 0.0 1.6 0.00 0.03 0.03 97 1013.3
20260509110354 10 298 0.0 1.6 0.00 0.03 0.03 97 1013.2
20260509110119 9 298 0.0 1.6 0.00 0.03 0.03 97 1013.3
20260509110042 9 0 0.0 1.6 0.00 0.03 0.03 96 1012.8
20260509105841 10 298 0.0 0.0 0.00 0.03 0.03 97 1013.3
20260509105352 10 298 0.0 0.0 0.00 0.03 0.03 97 1013.3
20260509104842 10 298 0.0 0.0 0.00 0.03 0.03 97 1013.3
20260509104613 9 298 0.0 1.6 0.00 0.03 0.03 97 1013.3
20260509104543 9 0 0.0 1.6 0.00 0.03 0.03 96 1012.7
20260509104354 9 298 0.0 1.6 0.00 0.03 0.03 97 1013.3
20260509103844 9 298 0.0 1.6 0.00 0.03 0.03 97 1013.2
20260509103356 9 298 0.0 0.0 0.00 0.03 0.03 97 1013.0
20260509103119 9 298 0.0 0.0 0.00 0.03 0.03 97 1013.0
20260509103039 9 0 0.0 0.0 0.00 0.03 0.03 96 1012.3
20260509102845 9 298 0.0 0.0 0.00 0.03 0.03 97 1013.0
20260509102355 9 298 0.0 1.6 0.00 0.03 0.03 97 1013.0
20260509101846 9 298 0.0 1.6 0.00 0.03 0.03 97 1012.9
20260509101611 9 298 0.0 1.6 0.00 0.03 0.03 97 1012.9
20260509101550 9 0 0.0 1.6 0.00 0.03 0.03 96 1012.2
20260509101337 9 298 0.0 1.6 0.00 0.03 0.03 97 1012.9
20260509100847 9 298 0.0 3.2 0.00 0.03 0.03 97 1012.9
20260509100358 9 298 1.6 3.2 0.00 0.03 0.03 97 1012.8
20260509100120 9 262 0.0 1.6 0.00 0.03 0.03 97 1012.9
20260509100038 9 0 0.0 1.6 0.00 0.03 0.03 96 1012.1
20260509095846 9 262 0.0 1.6 0.00 0.03 0.03 97 1012.9
20260509095336 9 262 0.0 1.6 0.00 0.03 0.03 97 1012.9
20260509094846 9 262 0.0 1.6 0.00 0.03 0.03 97 1013.1
20260509094614 9 262 0.0 1.6 0.00 0.03 0.03 97 1013.2
20260509094544 9 0 0.0 3.2 0.00 0.03 0.03 96 1012.4
20260509094417 9 262 1.6 1.6 0.00 0.03 0.03 96 1013.1
20260509093846 9 262 0.0 3.2 0.00 0.03 0.03 96 1013.2
20260509093356 9 262 0.0 3.2 0.00 0.03 0.03 96 1013.0
20260509093121 9 262 0.0 3.2 0.00 0.03 0.03 96 1013.0
20260509093053 9 0 0.0 3.2 0.00 0.03 0.03 96 1012.2
20260509092843 9 262 0.0 3.2 0.00 0.03 0.03 96 1013.0
20260509092353 9 262 0.0 3.2 0.00 0.03 0.03 96 1013.0
20260509091905 9 262 0.0 1.6 0.00 0.03 0.03 96 1013.1
20260509091613 9 262 0.0 1.6 0.00 0.03 0.03 96 1013.2
20260509091540 9 262 0.0 1.6 0.00 0.03 0.03 96 1012.4
20260509091355 9 262 0.0 1.6 0.00 0.03 0.03 96 1013.1
20260509090845 9 262 0.0 1.6 0.00 0.03 0.03 96 1013.0
20260509090356 9 262 0.0 1.6 0.00 0.03 0.03 96 1013.0
20260509090120 9 262 0.0 0.0 0.00 0.03 0.03 96 1013.1
20260509090039 9 0 0.0 0.0 0.00 0.03 0.03 96 1012.3
20260509085842 9 262 0.0 0.0 0.00 0.05 0.03 96 1013.0
20260509085352 9 262 0.0 1.6 0.00 0.05 0.03 96 1013.1
20260509084843 9 262 0.0 1.6 0.00 0.05 0.03 96 1013.2
20260509084611 9 262 0.0 1.6 0.00 0.05 0.03 96 1013.2
20260509084549 9 0 0.0 1.6 0.00 0.05 0.03 96 1012.4
20260509084414 9 262 0.0 1.6 0.00 0.05 0.03 96 1013.1
20260509083905 9 262 0.0 1.6 0.00 0.05 0.03 96 1013.1
20260509083416 9 262 0.0 0.0 0.00 0.05 0.03 96 1013.1
20260509083119 9 262 0.0 1.6 0.00 0.05 0.03 96 1013.2
20260509083042 9 0 0.0 1.6 0.00 0.05 0.03 96 1012.4
20260509082842 9 262 0.0 1.6 0.00 0.05 0.03 96 1013.1
20260509082351 9 262 0.0 1.6 0.00 0.05 0.03 96 1013.1
20260509081841 9 262 0.0 0.0 0.00 0.05 0.03 96 1013.3
20260509081610 9 262 0.0 0.0 0.00 0.05 0.03 96 1013.4
20260509081543 9 0 0.0 0.0 0.00 0.05 0.03 95 1012.6
20260509081413 9 262 0.0 0.0 0.00 0.05 0.03 96 1013.3
20260509080842 9 262 0.0 1.6 0.00 0.05 0.03 96 1013.3
20260509080414 9 262 0.0 1.6 0.03 0.05 0.03 96 1013.3
20260509080140 8 262 0.0 1.6 0.03 0.05 0.03 96 1013.4
20260509080053 8 0 0.0 1.6 0.03 0.05 0.03 95 1012.6
20260509075840 9 262 0.0 0.0 0.03 0.08 0.03 96 1013.3
20260509075414 9 262 0.0 1.6 0.03 0.08 0.03 96 1013.2
20260509074842 9 262 0.0 0.0 0.03 0.08 0.03 96 1013.2
20260509074611 8 262 0.0 0.0 0.03 0.08 0.03 96 1013.3
20260509074538 8 0 0.0 1.6 0.03 0.08 0.03 95 1012.5
20260509074353 9 262 0.0 1.6 0.03 0.08 0.03 96 1013.2
20260509073844 9 262 0.0 1.6 0.03 0.08 0.03 95 1013.2
20260509073356 9 262 0.0 0.0 0.03 0.08 0.03 95 1013.2
20260509073217 8 262 0.0 0.0 0.03 0.08 0.03 95 1013.2
20260509073045 8 0 0.0 1.6 0.03 0.08 0.03 95 1012.4
20260509072842 9 262 0.0 0.0 0.03 0.08 0.03 95 1013.0
20260509072352 9 262 0.0 1.6 0.03 0.08 0.03 95 1013.0
20260509071844 9 262 0.0 1.6 0.03 0.08 0.03 95 1013.0
20260509071611 8 262 0.0 1.6 0.03 0.08 0.03 95 1013.0
20260509071540 8 0 0.0 1.6 0.03 0.08 0.03 95 1012.4
20260509071353 9 262 0.0 1.6 0.03 0.08 0.03 95 1013.0
20260509070843 9 262 0.0 0.0 0.03 0.08 0.03 95 1013.0
20260509070355 9 262 0.0 0.0 0.00 0.05 0.00 95 1013.2
20260509070120 8 262 0.0 0.0 0.00 0.05 0.00 95 1013.3
20260509070044 8 0 0.0 0.0 0.00 0.05 0.00 94 1012.6
20260509065846 8 262 0.0 0.0 0.00 0.13 0.00 95 1013.3
20260509065356 8 262 0.0 0.0 0.00 0.13 0.00 95 1013.2
20260509064845 8 262 0.0 0.0 0.00 0.13 0.00 95 1013.2
20260509064609 8 262 0.0 0.0 0.00 0.13 0.00 95 1013.2
20260509064541 8 0 0.0 0.0 0.00 0.13 0.00 94 1012.5
20260509064356 8 262 0.0 0.0 0.00 0.13 0.00 95 1013.1
20260509063906 8 262 0.0 0.0 0.00 0.13 0.00 94 1013.2
20260509063356 8 262 0.0 1.6 0.00 0.13 0.00 94 1013.1
20260509063038 8 0 0.0 1.6 0.00 0.13 0.00 94 1012.6
20260509063002 8 262 0.0 1.6 0.00 0.13 0.00 94 1013.3
20260509062902 8 262 0.0 1.6 0.00 0.13 0.00 94 1013.3
20260509062350 8 262 0.0 1.6 0.00 0.13 0.00 94 1013.3
20260509061841 8 262 0.0 1.6 0.00 0.13 0.00 94 1013.3
20260509061605 8 262 0.0 1.6 0.00 0.13 0.00 94 1013.5
20260509061536 8 262 0.0 1.6 0.00 0.13 0.00 93 1012.8
20260509061352 8 262 0.0 1.6 0.00 0.13 0.00 94 1013.4
20260509060841 8 262 0.0 1.6 0.00 0.13 0.00 93 1013.4
20260509060412 8 262 0.0 1.6 0.00 0.13 0.00 93 1013.8
20260509060111 8 262 0.0 1.6 0.00 0.13 0.00 93 1013.9
20260509060036 8 0 0.0 3.2 0.00 0.13 0.00 93 1013.2
20260509055838 8 262 0.0 1.6 0.00 0.13 0.00 93 1013.8
20260509055349 8 262 0.0 3.2 0.00 0.13 0.00 93 1013.8
20260509054839 8 262 3.2 3.2 0.00 0.13 0.00 93 1013.8
20260509054607 8 274 0.0 3.2 0.00 0.13 0.00 93 1013.7
20260509054547 8 330 0.0 1.6 0.00 0.13 0.00 92 1013.1
20260509054411 8 330 0.0 0.0 0.00 0.13 0.00 92 1013.5
20260509053840 8 330 0.0 0.0 0.00 0.13 0.00 92 1013.5
20260509053351 8 330 0.0 0.0 0.00 0.13 0.00 92 1013.7
20260509053117 8 330 0.0 0.0 0.00 0.13 0.00 92 1013.8
20260509053041 8 0 0.0 1.6 0.00 0.13 0.00 92 1013.3
20260509052838 8 330 0.0 1.6 0.00 0.13 0.00 92 1013.8
20260509052348 8 330 0.0 1.6 0.00 0.13 0.00 92 1013.9
20260509051836 8 330 0.0 1.6 0.00 0.13 0.00 92 1013.8
20260509051606 8 330 0.0 3.2 0.00 0.13 0.00 92 1013.9
20260509051548 8 0 0.0 3.2 0.00 0.13 0.00 91 1013.2
20260509051408 8 331 0.0 3.2 0.00 0.13 0.00 92 1013.8
20260509050837 8 335 1.6 3.2 0.00 0.13 0.00 91 1013.7
20260509050349 8 351 0.0 1.6 0.00 0.13 0.00 91 1013.7
20260509050113 8 351 0.0 1.6 0.00 0.13 0.00 91 1013.6
20260509050043 8 0 0.0 1.6 0.00 0.13 0.00 91 1013.1
20260509045916 8 351 0.0 1.6 0.00 0.13 0.00 91 1013.6
20260509045345 8 351 0.0 1.6 0.00 0.13 0.00 91 1013.7
20260509044854 8 351 0.0 0.0 0.00 0.13 0.00 90 1013.7
20260509044536 8 0 0.0 0.0 0.00 0.13 0.00 90 1013.0
20260509044504 8 351 0.0 0.0 0.00 0.13 0.00 90 1013.6
20260509044404 8 351 0.0 0.0 0.00 0.13 0.00 90 1013.6
20260509043853 8 351 0.0 1.6 0.00 0.13 0.00 90 1013.7
20260509043343 8 351 0.0 1.6 0.00 0.13 0.00 90 1013.7
20260509043108 8 351 0.0 1.6 0.00 0.13 0.00 90 1013.8
20260509043045 8 0 0.0 1.6 0.00 0.13 0.00 89 1013.3
20260509042850 8 351 0.0 1.6 0.00 0.13 0.00 90 1013.8
20260509042339 8 351 0.0 1.6 0.00 0.13 0.00 89 1013.8
20260509041911 9 351 0.0 1.6 0.00 0.13 0.00 89 1013.7
20260509041618 8 351 0.0 1.6 0.00 0.13 0.00 89 1013.8
20260509041541 8 0 0.0 0.0 0.00 0.13 0.00 88 1013.2
20260509041340 9 351 0.0 0.0 0.00 0.13 0.00 89 1013.8
20260509040850 9 351 0.0 0.0 0.00 0.13 0.00 89 1013.8
20260509040342 9 351 0.0 0.0 0.00 0.13 0.00 88 1013.7
20260509040112 9 351 0.0 0.0 0.00 0.13 0.00 88 1013.9
20260509040042 9 0 0.0 0.0 0.00 0.13 0.00 88 1013.3
20260509035911 10 351 0.0 0.0 0.00 0.13 0.13 88 1013.9
20260509035339 10 351 0.0 0.0 0.00 0.13 0.13 88 1013.8
20260509034850 10 351 0.0 0.0 0.00 0.13 0.13 88 1013.9
20260509034617 10 351 0.0 0.0 0.00 0.13 0.13 88 1014.0
20260509034543 10 0 0.0 0.0 0.00 0.13 0.13 88 1013.3
20260509034340 10 351 0.0 0.0 0.00 0.13 0.13 88 1013.9
20260509033910 10 351 0.0 1.6 0.00 0.13 0.13 88 1013.9
20260509033340 10 351 0.0 0.0 0.00 0.13 0.13 88 1014.0
20260509033106 10 351 0.0 0.0 0.00 0.13 0.13 87 1014.1
20260509033036 10 0 0.0 0.0 0.00 0.13 0.13 87 1013.3
20260509032847 10 351 0.0 0.0 0.00 0.13 0.13 87 1013.9
20260509032336 10 351 0.0 0.0 0.00 0.13 0.13 87 1013.9
20260509031848 10 351 0.0 0.0 0.00 0.13 0.13 87 1013.9
20260509031616 10 351 0.0 0.0 0.00 0.13 0.13 87 1013.9
20260509031545 10 0 0.0 1.6 0.00 0.13 0.13 87 1013.2
20260509031339 10 351 0.0 1.6 0.00 0.13 0.13 87 1013.9
20260509030849 10 351 0.0 1.6 0.00 0.13 0.13 87 1013.9
20260509030344 10 351 0.0 0.0 0.00 0.13 0.13 87 1013.9
20260509030103 10 351 0.0 0.0 0.00 0.13 0.13 86 1014.0
20260509030040 10 0 0.0 0.0 0.00 0.13 0.13 86 1013.3
20260509025851 10 351 0.0 0.0 0.00 0.13 0.13 86 1013.9
20260509025341 10 351 0.0 0.0 0.00 0.13 0.13 86 1013.9
20260509024849 10 351 0.0 0.0 0.00 0.13 0.13 86 1013.8
20260509024615 10 351 0.0 0.0 0.00 0.13 0.13 86 1013.9
20260509024539 10 0 0.0 0.0 0.00 0.13 0.13 85 1013.1
20260509024341 10 351 0.0 0.0 0.00 0.13 0.13 86 1013.7
20260509023851 10 351 0.0 0.0 0.00 0.13 0.13 85 1013.7
20260509023358 10 351 526.3 526.3 0.00 0.00 0.13 85 1013.6
20260509023112 10 351 0.0 0.0 0.00 0.13 0.13 85 1013.7
20260509023041 10 0 0.0 0.0 0.00 0.13 0.13 85 1013.0
20260509022839 10 351 0.0 0.0 0.00 0.13 0.13 85 1013.6
20260509022409 10 351 0.0 0.0 0.00 0.13 0.13 85 1013.7
20260509021837 10 351 0.0 0.0 0.00 0.13 0.13 85 1013.5
20260509021601 10 351 0.0 0.0 0.00 0.13 0.13 84 1013.6
20260509021538 10 0 0.0 0.0 0.00 0.13 0.13 84 1013.0
20260509021348 10 351 0.0 0.0 0.00 0.13 0.13 84 1013.5
20260509020837 10 351 0.0 0.0 0.00 0.13 0.13 84 1013.4
20260509020348 10 351 0.0 0.0 0.00 0.13 0.13 84 1013.3
20260509020112 10 351 0.0 0.0 0.00 0.13 0.13 83 1013.4
20260509020045 10 0 0.0 0.0 0.00 0.13 0.13 83 1012.6
20260509015854 10 351 0.0 0.0 0.00 0.13 0.13 83 1013.2
20260509015345 10 351 0.0 0.0 0.00 0.13 0.13 83 1013.2
20260509014835 10 351 0.0 0.0 0.00 0.13 0.13 83 1013.2
20260509014603 10 351 0.0 0.0 0.00 0.13 0.13 83 1013.2
20260509014545 10 0 0.0 0.0 0.00 0.13 0.13 82 1012.4
20260509014344 10 351 0.0 0.0 0.00 0.13 0.13 83 1013.1
20260509013835 10 351 0.0 1.6 0.00 0.13 0.13 82 1013.0
20260509013346 10 351 0.0 3.2 0.00 0.13 0.13 82 1013.0
20260509013110 10 351 0.0 3.2 0.00 0.13 0.13 83 1013.1
20260509013048 10 351 0.0 3.2 0.00 0.13 0.13 82 1012.3
20260509012852 10 351 1.6 3.2 0.00 0.13 0.13 83 1012.9
20260509012341 10 351 1.6 3.2 0.00 0.13 0.13 82 1012.9
20260509011852 10 257 0.0 1.6 0.00 0.13 0.13 82 1012.9
20260509011620 10 257 0.0 3.2 0.00 0.13 0.13 82 1013.0
20260509011542 10 0 0.0 3.2 0.00 0.13 0.13 81 1012.1
20260509011342 10 257 0.0 3.2 0.00 0.13 0.13 81 1012.9
20260509010853 10 257 1.6 3.2 0.00 0.13 0.13 81 1012.8
20260509010344 10 257 0.0 1.6 0.00 0.13 0.13 80 1012.8
20260509010110 10 257 0.0 1.6 0.00 0.13 0.13 80 1012.9
20260509010038 10 0 0.0 1.6 0.00 0.13 0.13 79 1012.1
20260509005850 10 257 0.0 1.6 0.00 0.13 0.13 80 1012.8
20260509005341 10 257 0.0 0.0 0.00 0.13 0.13 79 1012.8
20260509004852 10 257 0.0 0.0 0.00 0.13 0.13 79 1012.7
20260509004538 10 0 0.0 0.0 0.00 0.13 0.13 78 1011.9
20260509004509 10 257 0.0 0.0 0.00 0.13 0.13 78 1012.6
20260509004402 10 257 0.0 0.0 0.00 0.13 0.13 78 1012.6
20260509003853 11 257 0.0 0.0 0.00 0.13 0.13 78 1012.4
20260509003404 11 257 0.0 0.0 0.00 0.13 0.13 77 1012.4
20260509003109 11 257 0.0 0.0 0.00 0.13 0.13 77 1012.5
20260509003045 11 0 0.0 0.0 0.00 0.13 0.13 76 1011.7
20260509002911 11 257 0.0 0.0 0.00 0.13 0.13 76 1012.3
20260509002340 11 257 0.0 1.6 0.00 0.13 0.13 75 1012.3
20260509001850 11 257 0.0 1.6 0.00 0.13 0.13 74 1012.2
20260509001618 11 257 0.0 1.6 0.00 0.13 0.13 74 1012.3
20260509001543 11 0 0.0 1.6 0.00 0.13 0.13 73 1011.5
20260509001338 12 257 0.0 1.6 0.00 0.13 0.13 73 1012.3
20260509000849 12 257 0.0 1.6 0.00 0.13 0.13 72 1012.3
20260509000344 12 257 0.0 1.6 0.00 0.13 0.13 71 1012.3
20260509000106 12 257 0.0 1.6 0.00 0.13 0.13 70 1012.4
20260509000039 12 0 0.0 1.6 0.00 0.13 0.13 70 1011.6
20260508235850 12 257 0.0 1.6 0.00 0.13 0.13 70 1012.3
20260508235340 13 257 0.0 1.6 0.00 0.13 0.13 69 1012.2
20260508234851 13 257 0.0 1.6 0.00 0.13 0.13 68 1012.1
20260508234615 13 257 0.0 1.6 0.00 0.13 0.13 68 1012.1
20260508234540 13 0 0.0 1.6 0.00 0.13 0.13 67 1011.4
20260508234340 13 257 0.0 1.6 0.00 0.13 0.13 68 1012.0
20260508233852 13 257 0.0 1.6 0.00 0.13 0.13 68 1011.9
20260508233344 13 257 0.0 1.6 0.00 0.13 0.13 66 1012.0
20260508233143 13 257 0.0 1.6 0.00 0.13 0.13 66 1012.1
20260508233048 13 0 0.0 4.8 0.00 0.13 0.13 65 1011.4
20260508232851 13 259 0.0 1.6 0.00 0.13 0.13 66 1012.0
20260508232401 13 231 1.6 4.8 0.00 0.13 0.13 64 1012.0
20260508231850 13 222 3.2 4.8 0.00 0.13 0.13 65 1012.1
20260508231615 13 248 1.6 3.2 0.00 0.13 0.13 66 1012.1
20260508231543 13 244 0.0 3.2 0.00 0.13 0.13 64 1011.4
20260508231340 13 286 0.0 3.2 0.00 0.13 0.13 66 1012.0
20260508230852 13 286 1.6 3.2 0.00 0.13 0.13 65 1011.9
20260508230343 13 221 1.6 3.2 0.00 0.13 0.13 64 1011.8
20260508230107 13 268 0.0 6.4 0.00 0.13 0.13 65 1011.9
20260508230047 13 0 0.0 6.4 0.00 0.13 0.13 64 1011.1
20260508225849 13 272 1.6 6.4 0.00 0.13 0.13 65 1011.7
20260508225340 14 284 3.2 8.0 0.00 0.13 0.13 63 1011.6
20260508224851 14 304 1.6 8.0 0.00 0.13 0.13 62 1011.6
20260508224617 13 296 1.6 6.4 0.00 0.13 0.13 62 1011.7
20260508224543 13 306 1.6 12.9 0.00 0.13 0.13 62 1011.0
20260508224340 14 330 4.8 12.9 0.00 0.13 0.13 63 1011.6
20260508223913 14 284 3.2 12.9 0.00 0.13 0.13 64 1011.7
20260508223344 14 334 3.2 11.3 0.00 0.13 0.13 63 1011.7
20260508223107 14 217 1.6 11.3 0.00 0.13 0.13 63 1011.7
20260508223040 14 211 1.6 11.3 0.00 0.13 0.13 62 1011.1
20260508222851 14 294 3.2 11.3 0.00 0.13 0.13 64 1011.6
20260508222342 14 236 1.6 14.5 0.00 0.13 0.13 62 1011.6